Вернуться в каталог

LUNAR PHOTON

АктивенНаукаLPO
NORAD 52916·PAYLOAD·🇺🇸 United States

Запущен Jun 28, 2022 с Rocket Lab Launch Complex 1

Loading…

TLE

УстаревшееSource: Space-Track

Эпоха: Jul 3, 2022, 03:24 UTC

1 52916U 22070C   22184.14236111 -.00000375  00000-0  00000+0 0  9995
2 52916  39.0806 321.8334 8405410 344.4990 285.0037  1.02266752   398

Отслеживайте LUNAR PHOTON в реальном времени с AllMySat

Download on the App Store